Home   Weather   Herten   Past weeks

Flag for Germany Past Weather in Herten, North Rhine-Westphalia, Germany — Yesterday and Last 2 Weeks

Now
50 °F

Passing clouds.


Feels Like: 48 °F
Forecast: 37 / 62 °F
Wind: 5 mph from East

Location: Dortmund / Wickede

Current Time: Apr 29, 2017 at 8:08:23 pm

Latest Report: Apr 29, 2017 at 7:20 pm


Visibility: N/A

Pressure: 30.04 "Hg

Humidity: 40%

Dew Point: 27 °F

Location of HertenLocation

Past Weather in Herten — Graph

°F

Herten Temperature Yesterday

Maximum temperature yesterday: 50 °F (at 2:20 pm)
Minimum temperature yesterday: 34 °F (at 5:20 am)
Average temperature yesterday: 44 °F

High & Low Weather Summary for the Past Weeks

 TemperatureHumidityPressure
High57 °F (Apr 24, 2:50 pm)93% (Apr 18, 5:20 am)30.60 "Hg (Apr 18, 5:20 am)
Low25 °F (Apr 20, 5:20 am)28% (Apr 20, 3:20 pm)29.68 "Hg (Apr 25, 5:20 am)
Average44 °F64%30.11 "Hg
* Reported Apr 14 6:20 pm — Apr 29 6:50 pm, Herten, Weather by CustomWeather, © 2017

Note: Actual official high and low records may vary slightly from our data, if they occured in-between our weather recording intervals... More about our weather records

Advertising

Herten Weather History for the Previous 24 Hours

Scroll right to see more
 ConditionsComfort  
Time TempWeatherWind HumidityBarometerVisibility
6:50 pm
Sat, Apr 29
50 °FSunny.7 mph43%30.04 "Hg10 mi
6:20 pm52 °FSunny.5 mph35%30.04 "Hg10 mi
5:50 pm52 °FPassing clouds.5 mph38%30.04 "HgN/A
5:20 pm52 °FPassing clouds.5 mph41%30.04 "HgN/A
4:50 pm52 °FPassing clouds.5 mph38%30.04 "HgN/A
4:20 pm52 °FSunny.2 mph32%30.07 "Hg10 mi
3:50 pm50 °FSunny.5 mph40%30.07 "Hg10 mi
3:20 pm50 °FSunny.3 mph43%30.07 "Hg10 mi
2:20 pm50 °FPartly sunny.6 mph47%30.07 "HgN/A
1:50 pm48 °FSunny.5 mph50%30.07 "Hg10 mi
1:20 pm48 °FPartly sunny.6 mph46%30.07 "HgN/A
12:50 pm48 °FPartly sunny.8 mph50%30.07 "HgN/A
12:20 pm46 °FPartly sunny.5 mph53%30.07 "HgN/A
11:50 am48 °FPartly sunny.5 mph50%30.07 "HgN/A
11:20 am48 °FPartly sunny.3 mph50%30.07 "HgN/A
10:50 am45 °FPartly sunny.5 mph57%30.07 "HgN/A
10:20 am43 °FScattered clouds.6 mph66%30.07 "HgN/A
9:20 am43 °FPartly sunny.5 mph71%30.07 "HgN/A
8:50 am43 °FPartly sunny.3 mph71%30.07 "HgN/A
8:20 am41 °FPartly sunny.5 mph81%30.04 "HgN/A
7:50 am39 °FPartly sunny.5 mph87%30.04 "HgN/A
7:20 am39 °FPartly sunny.5 mph87%30.04 "HgN/A
6:50 am39 °FPartly sunny.5 mph87%30.04 "HgN/A
6:20 am37 °FPartly sunny.7 mph93%30.04 "HgN/A
5:50 am36 °FPassing clouds.5 mph87%30.04 "HgN/A
5:20 am36 °FClear.3 mph87%30.04 "Hg10 mi
9:50 pm
Fri, Apr 28
41 °FPassing clouds.2 mph81%29.95 "HgN/A
9:20 pm43 °FClear.8 mph76%29.95 "Hg10 mi
8:50 pm45 °FClear.7 mph76%29.95 "Hg10 mi
8:20 pm45 °FScattered clouds.8 mph71%29.95 "HgN/A
Weather by CustomWeather, © 2017

See weather overviewHow to use our weather pages